Station Historical Data
Daily Summary for July 5, 2017 Units:  English    Metric   Both
Next Day »
Daily Weekly Monthly Yearly Custom
  High: Low: Average:
Temperature: 89.3 °F 68.4 °F 76.1 °F
Dew Point: 59.2 °F 50.5 °F 54 °F
Humidity: 60% 31% 47%
Wind Speed: 13.0mph 0.0mph 3mph
Wind Gust: 18.0mph - -
Wind- - SE
Pressure: 30.02 in 29.92 in -
Precipitation: 0.00 in    
Historical Graphs
 
 
Tabular Data for July 5, 2017
Time Temperature Dew Point Pressure Wind Wind Speed Wind Gust Humidity Rainfall Rate (Hourly) solar Conditions
00:03 70.8 °F 52.8 °F 29.93 in East 4.0 mph 18.0 mph 53% 0.00 in 0.00 W/m2
00:08 70.8 °F 52.8 °F 29.93 in SE 5.0 mph 13.0 mph 53% 0.00 in 0.00 W/m2
00:13 70.9 °F 52.9 °F 29.93 in East 8.0 mph 13.0 mph 53% 0.00 in 0.00 W/m2
00:15 70.9 °F 52.9 °F 29.93 in ESE 9.0 mph 13.0 mph 53% 0.00 in 0.00 W/m2
00:20 71.0 °F 53.0 °F 29.93 in East 3.0 mph 14.0 mph 53% 0.00 in 0.00 W/m2
00:25 71.0 °F 53.0 °F 29.93 in East 2.0 mph 16.0 mph 53% 0.00 in 0.00 W/m2
00:30 71.0 °F 52.5 °F 29.93 in ESE 7.0 mph 18.0 mph 52% 0.00 in 0.00 W/m2
00:35 71.1 °F 52.6 °F 29.93 in East 11.0 mph 18.0 mph 52% 0.00 in 0.00 W/m2
00:40 71.2 °F 52.7 °F 29.93 in ESE 7.0 mph 13.0 mph 52% 0.00 in 0.00 W/m2
00:45 71.3 °F 52.8 °F 29.93 in ESE 9.0 mph 15.0 mph 52% 0.00 in 0.00 W/m2
00:50 71.3 °F 52.8 °F 29.93 in East 12.0 mph 14.0 mph 52% 0.00 in 0.00 W/m2
00:55 71.3 °F 52.8 °F 29.92 in Calm   18.0 mph 52% 0.00 in 0.00 W/m2
01:00 71.2 °F 52.7 °F 29.92 in East 5.0 mph 13.0 mph 52% 0.00 in 0.00 W/m2
01:05 71.2 °F 52.7 °F 29.92 in ESE 11.0 mph 14.0 mph 52% 0.00 in 0.00 W/m2
01:10 71.2 °F 52.7 °F 29.92 in Calm   17.0 mph 52% 0.00 in 0.00 W/m2
01:15 71.2 °F 52.7 °F 29.93 in East 7.0 mph 14.0 mph 52% 0.00 in 0.00 W/m2
01:20 71.2 °F 52.7 °F 29.92 in East 7.0 mph 14.0 mph 52% 0.00 in 0.00 W/m2
01:25 71.2 °F 52.7 °F 29.92 in East 5.0 mph 14.0 mph 52% 0.00 in 0.00 W/m2
01:27 71.1 °F 52.6 °F 29.92 in East 4.0 mph 12.0 mph 52% 0.00 in 0.00 W/m2
01:32 71.1 °F 52.6 °F 29.93 in ESE 5.0 mph 12.0 mph 52% 0.00 in 0.00 W/m2
01:37 71.1 °F 52.6 °F 29.93 in ESE 6.0 mph 15.0 mph 52% 0.00 in 0.00 W/m2
01:42 71.1 °F 52.6 °F 29.93 in East 1.0 mph 9.0 mph 52% 0.00 in 0.00 W/m2
01:47 71.0 °F 52.5 °F 29.93 in ESE 5.0 mph 11.0 mph 52% 0.00 in 0.00 W/m2
01:52 71.0 °F 52.5 °F 29.93 in East 1.0 mph 11.0 mph 52% 0.00 in 0.00 W/m2
01:57 71.0 °F 53.0 °F 29.93 in Calm   13.0 mph 53% 0.00 in 0.00 W/m2
02:02 71.0 °F 53.0 °F 29.93 in East 5.0 mph 11.0 mph 53% 0.00 in 0.00 W/m2
02:07 70.9 °F 52.9 °F 29.92 in East 7.0 mph 12.0 mph 53% 0.00 in 0.00 W/m2
02:12 70.8 °F 52.8 °F 29.92 in East 5.0 mph 12.0 mph 53% 0.00 in 0.00 W/m2
02:17 70.7 °F 52.8 °F 29.92 in East 8.0 mph 13.0 mph 53% 0.00 in 0.00 W/m2
02:22 70.6 °F 52.7 °F 29.92 in East 4.0 mph 12.0 mph 53% 0.00 in 0.00 W/m2
02:27 70.6 °F 52.7 °F 29.93 in East 2.0 mph 12.0 mph 53% 0.00 in 0.00 W/m2
02:32 70.5 °F 52.6 °F 29.92 in East 10.0 mph 15.0 mph 53% 0.00 in 0.00 W/m2
02:37 70.3 °F 52.4 °F 29.92 in ESE 12.0 mph 12.0 mph 53% 0.00 in 0.00 W/m2
02:43 70.2 °F 52.3 °F 29.93 in ESE 9.0 mph 9.0 mph 53% 0.00 in 0.00 W/m2
02:47 70.1 °F 52.2 °F 29.93 in ESE 6.0 mph 11.0 mph 53% 0.00 in 0.00 W/m2
02:53 70.1 °F 52.2 °F 29.93 in East 5.0 mph 14.0 mph 53% 0.00 in 0.00 W/m2
02:58 70.0 °F 52.6 °F 29.93 in Calm   14.0 mph 54% 0.00 in 0.00 W/m2
03:03 69.9 °F 52.5 °F 29.93 in East 7.0 mph 13.0 mph 54% 0.00 in 0.00 W/m2
03:08 69.8 °F 52.4 °F 29.92 in ESE 8.0 mph 11.0 mph 54% 0.00 in 0.00 W/m2
03:13 69.7 °F 52.3 °F 29.92 in East 5.0 mph 11.0 mph 54% 0.00 in 0.00 W/m2
03:18 69.7 °F 52.8 °F 29.92 in East 8.0 mph 8.0 mph 55% 0.00 in 0.00 W/m2
03:23 69.6 °F 52.7 °F 29.92 in East 4.0 mph 8.0 mph 55% 0.00 in 0.00 W/m2
03:25 69.6 °F 52.7 °F 29.92 in East 2.0 mph 11.0 mph 55% 0.00 in 0.00 W/m2
03:30 69.4 °F 52.5 °F 29.92 in East 4.0 mph 9.0 mph 55% 0.00 in 0.00 W/m2
03:35 69.3 °F 52.5 °F 29.92 in East 5.0 mph 10.0 mph 55% 0.00 in 0.00 W/m2
03:37 69.2 °F 52.4 °F 29.92 in ESE 5.0 mph 11.0 mph 55% 0.00 in 0.00 W/m2
03:42 69.0 °F 52.7 °F 29.92 in East 6.0 mph 9.0 mph 56% 0.00 in 0.00 W/m2
03:44 69.0 °F 52.7 °F 29.92 in East 5.0 mph 12.0 mph 56% 0.00 in 0.00 W/m2
03:50 68.9 °F 52.6 °F 29.92 in East 2.0 mph 13.0 mph 56% 0.00 in 0.00 W/m2
03:55 68.8 °F 52.5 °F 29.92 in ESE 4.0 mph 12.0 mph 56% 0.00 in 0.00 W/m2
04:00 68.8 °F 52.5 °F 29.92 in Calm   14.0 mph 56% 0.00 in 0.00 W/m2
04:05 68.8 °F 52.5 °F 29.92 in ESE 11.0 mph 13.0 mph 56% 0.00 in 0.00 W/m2
04:10 68.8 °F 52.5 °F 29.92 in East 6.0 mph 11.0 mph 56% 0.00 in 0.00 W/m2
04:15 68.8 °F 52.0 °F 29.92 in Calm   11.0 mph 55% 0.00 in 0.00 W/m2
04:20 68.8 °F 52.0 °F 29.92 in ESE 4.0 mph 14.0 mph 55% 0.00 in 0.00 W/m2
04:25 68.8 °F 52.0 °F 29.92 in East 8.0 mph 14.0 mph 55% 0.00 in 0.00 W/m2
04:30 68.8 °F 52.0 °F 29.92 in Calm   11.0 mph 55% 0.00 in 0.00 W/m2
04:35 68.8 °F 52.0 °F 29.92 in ESE 9.0 mph 13.0 mph 55% 0.00 in 0.00 W/m2
04:40 68.8 °F 52.0 °F 29.92 in East 7.0 mph 16.0 mph 55% 0.00 in 0.00 W/m2
04:45 68.8 °F 52.0 °F 29.92 in East 8.0 mph 13.0 mph 55% 0.00 in 0.00 W/m2
04:50 68.7 °F 51.9 °F 29.92 in Calm   13.0 mph 55% 0.00 in 0.00 W/m2
04:55 68.7 °F 51.9 °F 29.92 in ESE 4.0 mph 11.0 mph 55% 0.00 in 0.00 W/m2
05:00 68.7 °F 51.9 °F 29.92 in East 8.0 mph 12.0 mph 55% 0.00 in 0.00 W/m2
05:03 68.6 °F 51.8 °F 29.92 in ESE 7.0 mph 14.0 mph 55% 0.00 in 0.00 W/m2
05:07 68.6 °F 51.8 °F 29.92 in East 8.0 mph 13.0 mph 55% 0.00 in 0.00 W/m2
05:12 68.6 °F 51.8 °F 29.92 in East 7.0 mph 12.0 mph 55% 0.00 in 0.00 W/m2
05:17 68.6 °F 51.8 °F 29.93 in East 6.0 mph 12.0 mph 55% 0.00 in 0.00 W/m2
05:22 68.5 °F 51.7 °F 29.93 in ESE 2.0 mph 15.0 mph 55% 0.00 in 0.00 W/m2
05:28 68.5 °F 51.7 °F 29.93 in East 5.0 mph 14.0 mph 55% 0.00 in 0.00 W/m2
05:33 68.5 °F 51.7 °F 29.93 in East 1.0 mph 13.0 mph 55% 0.00 in 0.00 W/m2
05:38 68.5 °F 51.7 °F 29.93 in East 8.0 mph 13.0 mph 55% 0.00 in 0.00 W/m2
05:43 68.4 °F 51.1 °F 29.93 in ESE 5.0 mph 14.0 mph 54% 0.00 in 5.00 W/m2
05:48 68.4 °F 51.1 °F 29.93 in East 5.0 mph 13.0 mph 54% 0.00 in 7.00 W/m2
05:53 68.4 °F 51.1 °F 29.93 in ESE 9.0 mph 13.0 mph 54% 0.00 in 9.00 W/m2
05:58 68.4 °F 51.1 °F 29.94 in East 2.0 mph 15.0 mph 54% 0.00 in 11.00 W/m2
06:03 68.4 °F 51.1 °F 29.94 in ESE 7.0 mph 12.0 mph 54% 0.00 in 14.00 W/m2
06:08 68.4 °F 51.1 °F 29.94 in SE 7.0 mph 13.0 mph 54% 0.00 in 16.00 W/m2
06:13 68.4 °F 51.1 °F 29.94 in East 8.0 mph 14.0 mph 54% 0.00 in 19.00 W/m2
06:18 68.5 °F 51.2 °F 29.94 in East 8.0 mph 15.0 mph 54% 0.00 in 28.00 W/m2
06:23 68.5 °F 51.2 °F 29.94 in ESE 9.0 mph 15.0 mph 54% 0.00 in 37.00 W/m2
06:28 68.5 °F 51.2 °F 29.94 in East 11.0 mph 13.0 mph 54% 0.00 in 49.00 W/m2
06:33 68.5 °F 51.2 °F 29.94 in East 5.0 mph 10.0 mph 54% 0.00 in 58.00 W/m2
06:34 68.5 °F 51.2 °F 29.94 in East 12.0 mph 14.0 mph 54% 0.00 in 62.00 W/m2
06:39 68.5 °F 51.2 °F 29.95 in East 1.0 mph 13.0 mph 54% 0.00 in 72.00 W/m2
06:44 68.5 °F 51.2 °F 29.95 in ESE 4.0 mph 12.0 mph 54% 0.00 in 88.00 W/m2
06:49 68.5 °F 51.2 °F 29.95 in ESE 4.0 mph 13.0 mph 54% 0.00 in 102.00 W/m2
06:54 68.5 °F 51.2 °F 29.95 in ESE 8.0 mph 12.0 mph 54% 0.00 in 111.00 W/m2
07:00 68.5 °F 51.7 °F 29.95 in East 12.0 mph 15.0 mph 55% 0.00 in 137.00 W/m2
07:05 68.5 °F 51.7 °F 29.95 in East 7.0 mph 13.0 mph 55% 0.00 in 156.00 W/m2
07:10 68.6 °F 51.8 °F 29.95 in East 1.0 mph 14.0 mph 55% 0.00 in 169.00 W/m2
07:15 68.5 °F 51.2 °F 29.95 in ESE 7.0 mph 15.0 mph 54% 0.00 in 192.00 W/m2
07:20 68.6 °F 51.3 °F 29.95 in Calm   15.0 mph 54% 0.00 in 206.00 W/m2
07:25 68.6 °F 51.3 °F 29.96 in ESE 4.0 mph 13.0 mph 54% 0.00 in 230.00 W/m2
07:30 68.7 °F 51.4 °F 29.96 in ESE 9.0 mph 12.0 mph 54% 0.00 in 248.00 W/m2
07:35 68.8 °F 51.5 °F 29.96 in East 9.0 mph 13.0 mph 54% 0.00 in 265.00 W/m2
07:40 68.9 °F 51.6 °F 29.96 in Calm   13.0 mph 54% 0.00 in 283.00 W/m2
07:45 69.0 °F 51.7 °F 29.96 in SE 8.0 mph 13.0 mph 54% 0.00 in 299.00 W/m2
07:50 69.2 °F 52.4 °F 29.96 in Calm   12.0 mph 55% 0.00 in 316.00 W/m2
07:55 69.3 °F 52.5 °F 29.96 in Calm   12.0 mph 55% 0.00 in 329.00 W/m2
08:00 69.4 °F 52.5 °F 29.96 in ESE 1.0 mph 11.0 mph 55% 0.00 in 345.00 W/m2
08:05 69.4 °F 52.5 °F 29.96 in ESE 5.0 mph 11.0 mph 55% 0.00 in 357.00 W/m2
08:10 69.6 °F 52.7 °F 29.97 in East 2.0 mph 8.0 mph 55% 0.00 in 378.00 W/m2
08:15 69.7 °F 53.3 °F 29.97 in ESE 4.0 mph 9.0 mph 56% 0.00 in 396.00 W/m2
08:20 69.8 °F 53.4 °F 29.97 in ESE 4.0 mph 12.0 mph 56% 0.00 in 415.00 W/m2
08:25 69.9 °F 54.0 °F 29.97 in ESE 4.0 mph 8.0 mph 57% 0.00 in 427.00 W/m2
08:30 70.1 °F 54.2 °F 29.97 in ESE 1.0 mph 9.0 mph 57% 0.00 in 441.00 W/m2
08:35 70.2 °F 54.3 °F 29.97 in Calm   8.0 mph 57% 0.00 in 457.00 W/m2
08:40 70.4 °F 54.9 °F 29.97 in ESE 5.0 mph 9.0 mph 58% 0.00 in 471.00 W/m2
08:45 70.6 °F 55.1 °F 29.97 in Calm   8.0 mph 58% 0.00 in 489.00 W/m2
08:50 70.9 °F 55.9 °F 29.97 in Calm   5.0 mph 59% 0.00 in 501.00 W/m2
08:55 71.1 °F 56.1 °F 29.97 in Calm   5.0 mph 59% 0.00 in 519.00 W/m2
09:00 71.3 °F 56.7 °F 29.97 in Calm   6.0 mph 60% 0.00 in 534.00 W/m2
09:05 71.5 °F 56.9 °F 29.97 in Calm   1.0 mph 60% 0.00 in 548.00 W/m2
09:10 71.7 °F 57.1 °F 29.98 in Calm   2.0 mph 60% 0.00 in 561.00 W/m2
09:15 71.9 °F 57.3 °F 29.97 in Calm   1.0 mph 60% 0.00 in 577.00 W/m2
09:20 72.1 °F 56.5 °F 29.97 in Calm     58% 0.00 in 591.00 W/m2
09:25 72.3 °F 56.2 °F 29.98 in Calm   1.0 mph 57% 0.00 in 605.00 W/m2
09:30 72.5 °F 56.4 °F 29.98 in Calm     57% 0.00 in 621.00 W/m2
09:31 72.6 °F 56.0 °F 29.98 in Calm     56% 0.00 in 622.00 W/m2
09:36 72.9 °F 57.3 °F 29.98 in Calm     58% 0.00 in 638.00 W/m2
09:41 73.2 °F 56.6 °F 29.98 in Calm     56% 0.00 in 652.00 W/m2
09:46 73.5 °F 54.8 °F 29.98 in Calm     52% 0.00 in 664.00 W/m2
09:51 74.1 °F 55.4 °F 29.98 in Calm     52% 0.00 in 679.00 W/m2
09:56 74.8 °F 55.5 °F 29.98 in Calm   4.0 mph 51% 0.00 in 691.00 W/m2
10:01 75.3 °F 54.8 °F 29.98 in SE 2.0 mph 5.0 mph 49% 0.00 in 703.00 W/m2
10:06 75.7 °F 54.6 °F 29.99 in SE 5.0 mph 6.0 mph 48% 0.00 in 717.00 W/m2
10:08 75.8 °F 54.2 °F 29.98 in Calm   6.0 mph 47% 0.00 in 719.00 W/m2
10:13 76.1 °F 53.8 °F 29.99 in SSE 1.0 mph 6.0 mph 46% 0.00 in 731.00 W/m2
10:18 76.6 °F 54.3 °F 29.98 in SSE 1.0 mph 1.0 mph 46% 0.00 in 740.00 W/m2
10:23 76.9 °F 54.0 °F 29.98 in Calm   1.0 mph 45% 0.00 in 752.00 W/m2
10:28 77.3 °F 54.9 °F 29.99 in SSE 1.0 mph 1.0 mph 46% 0.00 in 763.00 W/m2
10:33 77.6 °F 55.2 °F 29.99 in Calm   1.0 mph 46% 0.00 in 777.00 W/m2
10:38 78.0 °F 54.3 °F 29.99 in Calm   2.0 mph 44% 0.00 in 786.00 W/m2
10:43 78.6 °F 55.5 °F 29.99 in Calm   2.0 mph 45% 0.00 in 796.00 W/m2
10:48 79.0 °F 54.6 °F 29.99 in Calm   6.0 mph 43% 0.00 in 809.00 W/m2
10:53 79.5 °F 54.4 °F 29.99 in Calm   5.0 mph 42% 0.00 in 816.00 W/m2
10:58 79.8 °F 54.7 °F 29.99 in Calm   2.0 mph 42% 0.00 in 826.00 W/m2
11:04 80.0 °F 54.9 °F 30.00 in SSE 2.0 mph 4.0 mph 42% 0.00 in 831.00 W/m2
11:09 80.3 °F 55.8 °F 30.00 in SW 2.0 mph 7.0 mph 43% 0.00 in 844.00 W/m2
11:14 80.6 °F 54.8 °F 30.00 in Calm   5.0 mph 41% 0.00 in 849.00 W/m2
11:19 80.9 °F 54.3 °F 30.00 in South 5.0 mph 6.0 mph 40% 0.00 in 860.00 W/m2
11:20 81.0 °F 55.1 °F 30.00 in SSW 4.0 mph 6.0 mph 41% 0.00 in 860.00 W/m2
11:25 81.2 °F 51.7 °F 30.00 in Calm   6.0 mph 36% 0.00 in 867.00 W/m2
11:30 81.5 °F 52.7 °F 30.00 in Calm   2.0 mph 37% 0.00 in 872.00 W/m2
11:35 81.7 °F 52.2 °F 30.00 in SSW 3.0 mph 8.0 mph 36% 0.00 in 881.00 W/m2
11:40 82.0 °F 51.7 °F 30.00 in SW 1.0 mph 9.0 mph 35% 0.00 in 884.00 W/m2
11:45 82.3 °F 52.7 °F 30.00 in SSW 4.0 mph 7.0 mph 36% 0.00 in 891.00 W/m2
11:48 82.4 °F 52.8 °F 30.00 in SSW 5.0 mph 7.0 mph 36% 0.00 in 893.00 W/m2
11:53 82.7 °F 53.8 °F 30.00 in SSW 3.0 mph 7.0 mph 37% 0.00 in 898.00 W/m2
11:58 83.0 °F 54.1 °F 30.00 in Calm   2.0 mph 37% 0.00 in 900.00 W/m2
12:03 83.3 °F 55.1 °F 30.00 in SW 3.0 mph 7.0 mph 38% 0.00 in 907.00 W/m2
12:08 83.6 °F 53.8 °F 30.00 in SSE 5.0 mph 8.0 mph 36% 0.00 in 912.00 W/m2
12:13 84.1 °F 54.3 °F 30.00 in SSW 3.0 mph 7.0 mph 36% 0.00 in 916.00 W/m2
12:18 84.7 °F 56.3 °F 30.00 in Calm   8.0 mph 38% 0.00 in 918.00 W/m2
12:23 85.2 °F 55.3 °F 30.00 in SSW 5.0 mph 8.0 mph 36% 0.00 in 921.00 W/m2
12:28 85.5 °F 55.5 °F 30.00 in South 2.0 mph 8.0 mph 36% 0.00 in 925.00 W/m2
12:33 85.9 °F 55.9 °F 30.00 in SSE 5.0 mph 10.0 mph 36% 0.00 in 925.00 W/m2
12:38 86.3 °F 55.5 °F 30.00 in South 7.0 mph 10.0 mph 35% 0.00 in 928.00 W/m2
12:43 86.7 °F 55.0 °F 30.01 in Calm   13.0 mph 34% 0.00 in 930.00 W/m2
12:44 86.8 °F 55.1 °F 30.00 in Calm   13.0 mph 34% 0.00 in 930.00 W/m2
12:49 87.3 °F 55.5 °F 30.00 in South 5.0 mph 7.0 mph 34% 0.00 in 932.00 W/m2
12:54 87.9 °F 55.2 °F 30.01 in SSW 5.0 mph 12.0 mph 33% 0.00 in 935.00 W/m2
12:59 88.4 °F 54.0 °F 30.00 in SSW 8.0 mph 12.0 mph 31% 0.00 in 933.00 W/m2
13:04 88.9 °F 54.4 °F 30.00 in SSW 1.0 mph 8.0 mph 31% 0.00 in 930.00 W/m2
13:09 89.3 °F 54.7 °F 30.00 in SSW 4.0 mph 5.0 mph 31% 0.00 in 944.00 W/m2
13:14 89.2 °F 55.5 °F 30.00 in Calm   10.0 mph 32% 0.00 in 991.00 W/m2
13:19 89.2 °F 54.6 °F 30.00 in Calm   7.0 mph 31% 0.00 in 728.00 W/m2
13:24 89.0 °F 55.3 °F 30.00 in Calm   4.0 mph 32% 0.00 in 1044.00 W/m2
13:29 88.4 °F 55.7 °F 30.00 in Calm   4.0 mph 33% 0.00 in 466.00 W/m2
13:34 87.9 °F 56.9 °F 30.00 in SSW 7.0 mph 13.0 mph 35% 0.00 in 466.00 W/m2
13:39 88.0 °F 54.5 °F 30.00 in South 3.0 mph 7.0 mph 32% 0.00 in 622.00 W/m2
13:44 88.2 °F 56.3 °F 30.00 in SSW 9.0 mph 11.0 mph 34% 0.00 in 1030.00 W/m2
13:49 88.4 °F 56.5 °F 30.00 in Calm   8.0 mph 34% 0.00 in 946.00 W/m2
13:54 88.4 °F 56.5 °F 29.99 in Calm   4.0 mph 34% 0.00 in 427.00 W/m2
13:59 88.4 °F 56.5 °F 30.00 in SW 7.0 mph 10.0 mph 34% 0.00 in 1109.00 W/m2
14:04 88.2 °F 54.7 °F 30.00 in SSW 8.0 mph 10.0 mph 32% 0.00 in 568.00 W/m2
14:09 88.0 °F 56.1 °F 29.99 in Calm   7.0 mph 34% 0.00 in 513.00 W/m2
14:14 87.2 °F 55.4 °F 29.99 in SSW 4.0 mph 8.0 mph 34% 0.00 in 538.00 W/m2
14:19 86.6 °F 58.0 °F 29.99 in Calm   5.0 mph 38% 0.00 in 548.00 W/m2
14:24 86.1 °F 57.5 °F 29.99 in Calm   2.0 mph 38% 0.00 in 1051.00 W/m2
14:29 85.8 °F 56.5 °F 29.99 in Calm   3.0 mph 37% 0.00 in 480.00 W/m2
14:34 85.8 °F 56.5 °F 29.99 in SW 6.0 mph 6.0 mph 37% 0.00 in 387.00 W/m2
14:39 85.9 °F 58.1 °F 29.99 in SW 2.0 mph 7.0 mph 39% 0.00 in 230.00 W/m2
14:44 85.7 °F 57.9 °F 30.00 in SW 7.0 mph 11.0 mph 39% 0.00 in 550.00 W/m2
14:49 85.4 °F 58.4 °F 30.00 in SW 6.0 mph 9.0 mph 40% 0.00 in 773.00 W/m2
14:54 85.3 °F 57.6 °F 30.00 in Calm   9.0 mph 39% 0.00 in 773.00 W/m2
14:59 85.2 °F 56.8 °F 30.00 in Calm   7.0 mph 38% 0.00 in 543.00 W/m2
15:04 85.0 °F 56.6 °F 30.00 in SW 6.0 mph 7.0 mph 38% 0.00 in 446.00 W/m2
15:09 85.0 °F 56.6 °F 30.00 in SW 4.0 mph 7.0 mph 38% 0.00 in 717.00 W/m2
15:14 84.9 °F 56.5 °F 30.00 in SW 8.0 mph 11.0 mph 38% 0.00 in 443.00 W/m2
15:19 84.9 °F 57.2 °F 30.00 in SSW 1.0 mph 9.0 mph 39% 0.00 in 378.00 W/m2
15:24 84.8 °F 58.5 °F 30.00 in Calm     41% 0.00 in 494.00 W/m2
15:29 84.7 °F 58.4 °F 30.01 in Calm   6.0 mph 41% 0.00 in 469.00 W/m2
15:34 84.6 °F 57.6 °F 30.00 in SW 1.0 mph 4.0 mph 40% 0.00 in 350.00 W/m2
15:39 84.4 °F 56.8 °F 30.00 in Calm   5.0 mph 39% 0.00 in 397.00 W/m2
15:44 84.3 °F 58.7 °F 30.01 in Calm   2.0 mph 42% 0.00 in 450.00 W/m2
15:50 84.1 °F 59.2 °F 30.01 in Calm   8.0 mph 43% 0.00 in 251.00 W/m2
15:55 83.9 °F 57.0 °F 30.01 in Calm   6.0 mph 40% 0.00 in 144.00 W/m2
16:00 83.6 °F 56.0 °F 30.00 in Calm   8.0 mph 39% 0.00 in 125.00 W/m2
16:05 83.2 °F 56.4 °F 30.00 in Calm     40% 0.00 in 179.00 W/m2
16:10 82.9 °F 57.5 °F 30.00 in Calm     42% 0.00 in 332.00 W/m2
16:15 82.6 °F 58.5 °F 30.00 in Calm     44% 0.00 in 816.00 W/m2
16:20 82.4 °F 59.0 °F 30.00 in Calm     45% 0.00 in 548.00 W/m2
16:25 82.3 °F 57.6 °F 30.00 in Calm     43% 0.00 in 759.00 W/m2
16:30 82.3 °F 53.5 °F 29.99 in Calm     37% 0.00 in 819.00 W/m2
16:35 82.4 °F 54.3 °F 29.99 in Calm     38% 0.00 in 288.00 W/m2
16:40 82.6 °F 55.9 °F 29.99 in Calm     40% 0.00 in 262.00 W/m2
16:45 82.7 °F 58.0 °F 29.99 in Calm     43% 0.00 in 652.00 W/m2
16:50 82.7 °F 56.6 °F 29.98 in Calm     41% 0.00 in 663.00 W/m2
16:55 82.7 °F 58.0 °F 29.98 in Calm     43% 0.00 in 598.00 W/m2
17:00 82.8 °F 55.3 °F 29.98 in Calm     39% 0.00 in 712.00 W/m2
17:05 83.0 °F 54.1 °F 29.98 in Calm     37% 0.00 in 624.00 W/m2
17:10 83.2 °F 55.0 °F 29.98 in Calm     38% 0.00 in 612.00 W/m2
17:15 83.4 °F 56.6 °F 29.97 in Calm     40% 0.00 in 543.00 W/m2
17:20 83.7 °F 54.7 °F 29.97 in Calm     37% 0.00 in 524.00 W/m2
17:25 83.8 °F 51.7 °F 29.97 in Calm     33% 0.00 in 492.00 W/m2
17:30 84.0 °F 53.4 °F 29.97 in Calm     35% 0.00 in 471.00 W/m2
17:35 84.1 °F 52.7 °F 29.97 in Calm     34% 0.00 in 448.00 W/m2
17:40 84.1 °F 51.9 °F 29.97 in Calm   1.0 mph 33% 0.00 in 438.00 W/m2
17:41 84.2 °F 52.0 °F 29.96 in Calm     33% 0.00 in 439.00 W/m2
17:46 84.2 °F 52.0 °F 29.97 in Calm     33% 0.00 in 422.00 W/m2
17:51 84.2 °F 52.8 °F 29.97 in Calm     34% 0.00 in 406.00 W/m2
17:56 84.2 °F 52.8 °F 29.97 in Calm     34% 0.00 in 390.00 W/m2
18:01 84.2 °F 52.8 °F 29.97 in SW 1.0 mph 6.0 mph 34% 0.00 in 376.00 W/m2
18:06 84.2 °F 52.8 °F 29.97 in SW 4.0 mph 4.0 mph 34% 0.00 in 360.00 W/m2
18:11 84.2 °F 54.4 °F 29.97 in SW 2.0 mph 4.0 mph 36% 0.00 in 348.00 W/m2
18:16 84.1 °F 52.7 °F 29.97 in Calm   1.0 mph 34% 0.00 in 329.00 W/m2
18:17 84.1 °F 52.7 °F 29.97 in SW 1.0 mph 2.0 mph 34% 0.00 in 327.00 W/m2
18:22 84.0 °F 53.4 °F 29.97 in SW 3.0 mph 7.0 mph 35% 0.00 in 311.00 W/m2
18:27 83.9 °F 53.3 °F 29.97 in WSW 2.0 mph 4.0 mph 35% 0.00 in 297.00 W/m2
18:32 83.8 °F 54.0 °F 29.97 in Calm   1.0 mph 36% 0.00 in 281.00 W/m2
18:37 83.6 °F 54.6 °F 29.97 in West 2.0 mph 7.0 mph 37% 0.00 in 264.00 W/m2
18:42 83.3 °F 55.1 °F 29.97 in Calm   1.0 mph 38% 0.00 in 250.00 W/m2
18:43 83.3 °F 55.1 °F 29.97 in Calm   2.0 mph 38% 0.00 in 248.00 W/m2
18:47 83.1 °F 55.6 °F 29.97 in West 1.0 mph 1.0 mph 39% 0.00 in 234.00 W/m2
18:52 82.7 °F 56.0 °F 29.97 in West 2.0 mph 5.0 mph 40% 0.00 in 218.00 W/m2
18:57 82.3 °F 56.3 °F 29.97 in Calm   5.0 mph 41% 0.00 in 204.00 W/m2
19:02 81.8 °F 55.1 °F 29.97 in Calm   6.0 mph 40% 0.00 in 188.00 W/m2
19:07 81.5 °F 55.5 °F 29.98 in Calm   1.0 mph 41% 0.00 in 178.00 W/m2
19:12 81.3 °F 56.7 °F 29.98 in Calm     43% 0.00 in 155.00 W/m2
19:17 80.9 °F 57.0 °F 29.98 in Calm   1.0 mph 44% 0.00 in 141.00 W/m2
19:22 80.6 °F 57.3 °F 29.98 in Calm   1.0 mph 45% 0.00 in 123.00 W/m2
19:27 80.2 °F 58.2 °F 29.98 in Calm     47% 0.00 in 104.00 W/m2
19:32 79.6 °F 58.2 °F 29.98 in Calm     48% 0.00 in 88.00 W/m2
19:37 79.0 °F 57.7 °F 29.98 in Calm     48% 0.00 in 72.00 W/m2
19:42 78.5 °F 57.8 °F 29.98 in Calm     49% 0.00 in 58.00 W/m2
19:48 78.1 °F 58.5 °F 29.98 in Calm   1.0 mph 51% 0.00 in 46.00 W/m2
19:53 77.6 °F 58.6 °F 29.99 in Calm   1.0 mph 52% 0.00 in 35.00 W/m2
19:58 77.2 °F 58.2 °F 29.99 in Calm     52% 0.00 in 26.00 W/m2
20:03 76.8 °F 57.3 °F 29.99 in Calm     51% 0.00 in 21.00 W/m2
20:08 76.3 °F 57.4 °F 29.99 in Calm     52% 0.00 in 16.00 W/m2
20:13 75.8 °F 56.9 °F 29.99 in Calm     52% 0.00 in 14.00 W/m2
20:18 75.3 °F 56.5 °F 29.99 in Calm     52% 0.00 in 12.00 W/m2
20:23 74.9 °F 56.6 °F 29.99 in Calm     53% 0.00 in 9.00 W/m2
20:28 74.5 °F 56.3 °F 29.99 in Calm     53% 0.00 in 7.00 W/m2
20:33 74.0 °F 55.8 °F 29.99 in Calm     53% 0.00 in 5.00 W/m2
20:38 73.6 °F 55.4 °F 29.99 in Calm   1.0 mph 53% 0.00 in 0.00 W/m2
20:43 73.3 °F 55.2 °F 29.99 in Calm   1.0 mph 53% 0.00 in 0.00 W/m2
20:48 73.1 °F 54.5 °F 29.99 in WNW 3.0 mph 3.0 mph 52% 0.00 in 0.00 W/m2
20:53 73.0 °F 53.8 °F 29.99 in Calm     51% 0.00 in 0.00 W/m2
20:58 72.8 °F 53.6 °F 29.99 in Calm   1.0 mph 51% 0.00 in 0.00 W/m2
21:03 72.8 °F 53.1 °F 30.00 in Calm     50% 0.00 in 0.00 W/m2
21:08 72.6 °F 53.5 °F 30.00 in Calm     51% 0.00 in 0.00 W/m2
21:10 72.6 °F 51.8 °F 30.00 in Calm     48% 0.00 in 0.00 W/m2
21:15 72.5 °F 51.7 °F 30.00 in Calm   1.0 mph 48% 0.00 in 0.00 W/m2
21:20 72.3 °F 51.0 °F 30.00 in Calm   1.0 mph 47% 0.00 in 0.00 W/m2
21:25 72.2 °F 50.9 °F 30.00 in Calm   1.0 mph 47% 0.00 in 0.00 W/m2
21:30 72.2 °F 50.9 °F 30.00 in Calm   1.0 mph 47% 0.00 in 0.00 W/m2
21:33 72.2 °F 50.9 °F 30.01 in Calm   6.0 mph 47% 0.00 in 0.00 W/m2
21:38 72.2 °F 50.9 °F 30.01 in Calm   7.0 mph 47% 0.00 in 0.00 W/m2
21:43 72.3 °F 51.0 °F 30.01 in East 1.0 mph 6.0 mph 47% 0.00 in 0.00 W/m2
21:48 72.3 °F 51.0 °F 30.01 in East 1.0 mph 8.0 mph 47% 0.00 in 0.00 W/m2
21:53 72.4 °F 50.5 °F 30.01 in East 1.0 mph 7.0 mph 46% 0.00 in 0.00 W/m2
21:58 72.4 °F 50.5 °F 30.01 in East 9.0 mph 9.0 mph 46% 0.00 in 0.00 W/m2
22:03 72.5 °F 50.6 °F 30.01 in East 5.0 mph 8.0 mph 46% 0.00 in 0.00 W/m2
22:08 72.6 °F 50.7 °F 30.01 in East 5.0 mph 8.0 mph 46% 0.00 in 0.00 W/m2
22:13 72.7 °F 51.3 °F 30.01 in East 7.0 mph 9.0 mph 47% 0.00 in 0.00 W/m2
22:18 72.8 °F 52.0 °F 30.01 in ESE 7.0 mph 12.0 mph 48% 0.00 in 0.00 W/m2
22:23 72.8 °F 52.5 °F 30.01 in East 7.0 mph 11.0 mph 49% 0.00 in 0.00 W/m2
22:28 72.9 °F 52.6 °F 30.01 in ESE 6.0 mph 12.0 mph 49% 0.00 in 0.00 W/m2
22:33 73.0 °F 53.3 °F 30.02 in East 5.0 mph 8.0 mph 50% 0.00 in 0.00 W/m2
22:38 73.0 °F 53.3 °F 30.02 in Calm   12.0 mph 50% 0.00 in 0.00 W/m2
22:43 73.1 °F 53.4 °F 30.01 in ESE 7.0 mph 9.0 mph 50% 0.00 in 0.00 W/m2
22:48 73.1 °F 53.9 °F 30.02 in East 2.0 mph 8.0 mph 51% 0.00 in 0.00 W/m2
22:53 73.2 °F 54.0 °F 30.02 in East 8.0 mph 12.0 mph 51% 0.00 in 0.00 W/m2
22:58 73.3 °F 54.1 °F 30.02 in ESE 7.0 mph 9.0 mph 51% 0.00 in 0.00 W/m2
23:03 73.3 °F 54.1 °F 30.02 in East 8.0 mph 8.0 mph 51% 0.00 in 0.00 W/m2
23:08 73.3 °F 54.1 °F 30.01 in East 4.0 mph 11.0 mph 51% 0.00 in 0.00 W/m2
23:13 73.3 °F 54.1 °F 30.02 in East 6.0 mph 14.0 mph 51% 0.00 in 0.00 W/m2
23:18 73.3 °F 54.1 °F 30.02 in Calm   12.0 mph 51% 0.00 in 0.00 W/m2
23:23 73.3 °F 54.1 °F 30.02 in East 13.0 mph 13.0 mph 51% 0.00 in 0.00 W/m2
23:28 73.3 °F 54.1 °F 30.02 in East 5.0 mph 9.0 mph 51% 0.00 in 0.00 W/m2
23:33 73.3 °F 54.1 °F 30.01 in Calm   9.0 mph 51% 0.00 in 0.00 W/m2
23:38 73.3 °F 54.1 °F 30.01 in East 5.0 mph 12.0 mph 51% 0.00 in 0.00 W/m2
23:44 73.2 °F 53.5 °F 30.01 in ESE 1.0 mph 13.0 mph 50% 0.00 in 0.00 W/m2
23:48 73.2 °F 53.5 °F 30.01 in East 10.0 mph 12.0 mph 50% 0.00 in 0.00 W/m2
23:54 73.1 °F 53.4 °F 30.01 in East 9.0 mph 12.0 mph 50% 0.00 in 0.00 W/m2
23:59 73.1 °F 53.4 °F 30.01 in ESE 8.0 mph 16.0 mph 50% 0.00 in 0.00 W/m2
Foresthill Weather
 WU-history PHP script courtesy of   Juneau County Weather.
powered by Cumulus v1.9.3 (1059)
Ambient Weather VWS v14.00
Top Contact Website Map Copyright © 2007 - 2018 Foresthillweather.com Never base important decisions on this or any weather information obtained from the Internet